Tracking 35331 objects as of 14-Sep-2026
HD Live streaming from Space Station
objects crossing your sky now

RESURS F-1 DEB


RESURS F-1 DEB is no longer on orbit


NORAD ID: 20077
Int'l Code: 1989-038F
Launch date: May 25, 1989
Source: Commonwealth of Independent States (former USSR) (CIS)
Launch site: PLESETSK MISSILE AND SPACE COMPLEX (PKMTR)
Decay date: 1989-06-19

Note: This is SATELLITE DEBRIS
Your satellite tracking list
Your tracking list is empty




NASA's NSSDC Master Catalog

Two Line Element Set (TLE):
1 20077U 89038  F 89170.08113402  .20190051 -25000-5 +28686-1 0  9990
2 20077 082.3412 013.1640 0113378 306.9326 053.6639 15.94162602003972
Source of the keplerian elements: AFSPC